Weather History for K3I2 - April, 2013

Change the Weather History Date:

Saturday, April 20, 2013

  Actual Average (KHTS) Record (KHTS)
Temperature  
Mean Temperature 48 °F 58 °F  
Max Temperature 59 °F 70 °F 89 °F (1976)
Min Temperature 35 °F 46 °F 25 °F (1926)
Degree Days  
Heating Degree Days 17 8  
Month to date heating degree days 221  
Since 1 July heating degree days 4318  
Cooling Degree Days 0 1  
Month to date cooling degree days 19  
Year to date cooling degree days 24  
Moisture  
Dew Point 29 °F    
Average Humidity 52    
Maximum Humidity 76    
Minimum Humidity 25    
Precipitation  
Precipitation 0.00 in 0.12 in 3.54 in (1901)
Month to date precipitation 2.23  
Year to date precipitation 12.17  
Snow  
Snow 0.00 in - - ()
Month to date snowfall  
Since 1 September snowfall  
Snow Depth -    
Sea Level Pressure  
Sea Level Pressure 30.19 in    
Wind  
Wind Speed 7 mph (West)    
Max Wind Speed 13 mph    
Max Gust Speed 23 mph    
Visibility 10 miles    
Events      
T = Trace of Precipitation, MM = Missing Value Source: NWS Daily Summary

Daily Weather History Graph

Daily Weather History Graph

Search for Another Location

Airport or City:

Trip Planner

Search our weather history database for the weather conditions in past years. The results will help you decide how hot, cold, wet, or windy it might be!

Date:

Astronomy

Apr. 20, 2013 Rise Set
Actual Time 6:44 AM EDT 8:10 PM EDT
Civil Twilight 6:16 AM EDT 8:38 PM EDT
Nautical Twilight 5:43 AM EDT 9:12 PM EDT
Astronomical Twilight 5:07 AM EDT 9:47 PM EDT
Moon 2:56 PM EDT (4/20) 3:30 AM EDT (4/20)
Length of Visible Light 14h 22m
Length of Day
13h 26m
Waxing Gibbous, 71% of the Moon is Illuminated
Apr 20
Waxing Gibbous
Apr 25
Full
May 2
Last Quarter
May 9
New
May 18
First Quarter

Hourly Weather History & Observations

Time (EDT) Temp. Windchill Dew Point Humidity Pressure Visibility Wind Dir Wind Speed Gust Speed Precip Events Conditions
12:15 AM 44.6 °F 40.2 °F 30.2 °F 57% 30.02 in 10.0 mi WSW 8.1 mph - N/A   Overcast
12:35 AM 44.6 °F 39.7 °F 30.2 °F 57% 30.03 in 10.0 mi WSW 9.2 mph 16.1 mph N/A   Mostly Cloudy
12:55 AM 44.6 °F 40.2 °F 30.2 °F 57% 30.04 in 10.0 mi WSW 8.1 mph - N/A   Scattered Clouds
1:15 AM 42.8 °F 38.6 °F 30.2 °F 61% 30.04 in 10.0 mi WSW 6.9 mph - N/A   Clear
1:35 AM 42.8 °F 39.3 °F 30.2 °F 61% 30.05 in 10.0 mi WSW 5.8 mph - N/A   Clear
1:55 AM 42.8 °F 40.1 °F 30.2 °F 61% 30.05 in 10.0 mi WSW 4.6 mph - N/A   Clear
2:15 AM 41.0 °F 38.0 °F 30.2 °F 65% 30.05 in 10.0 mi SW 4.6 mph - N/A   Clear
2:35 AM 41.0 °F 35.8 °F 30.2 °F 65% 30.05 in 10.0 mi SW 8.1 mph - N/A   Clear
2:55 AM 41.0 °F 36.4 °F 32.0 °F 70% 30.05 in 10.0 mi WSW 6.9 mph - N/A   Clear
3:15 AM 41.0 °F 36.4 °F 32.0 °F 70% 30.05 in 10.0 mi WSW 6.9 mph - N/A   Mostly Cloudy
3:35 AM 41.0 °F 34.7 °F 32.0 °F 70% 30.05 in 10.0 mi WSW 10.4 mph - N/A   Scattered Clouds
3:55 AM 41.0 °F 34.3 °F 32.0 °F 70% 30.06 in 10.0 mi WSW 11.5 mph 19.6 mph N/A   Clear
4:15 AM 41.0 °F 35.2 °F 32.0 °F 70% 30.06 in 10.0 mi WSW 9.2 mph - N/A   Clear
4:35 AM 41.0 °F 34.7 °F 32.0 °F 70% 30.07 in 10.0 mi WSW 10.4 mph - N/A   Scattered Clouds
4:55 AM 41.0 °F 37.1 °F 32.0 °F 70% 30.07 in 10.0 mi WSW 5.8 mph - N/A   Mostly Cloudy
5:15 AM 41.0 °F 35.8 °F 32.0 °F 70% 30.07 in 10.0 mi WSW 8.1 mph - N/A   Mostly Cloudy
5:35 AM 41.0 °F 35.8 °F 32.0 °F 70% 30.08 in 10.0 mi WSW 8.1 mph - N/A   Scattered Clouds
5:55 AM 39.2 °F 33.6 °F 32.0 °F 75% 30.09 in 10.0 mi WSW 8.1 mph - N/A   Clear
6:15 AM 39.2 °F 34.2 °F 32.0 °F 75% 30.09 in 10.0 mi WSW 6.9 mph - N/A   Scattered Clouds
6:35 AM 39.2 °F 34.2 °F 32.0 °F 75% 30.10 in 10.0 mi WSW 6.9 mph - N/A   Scattered Clouds
6:55 AM 39.2 °F 35.0 °F 32.0 °F 75% 30.10 in 10.0 mi SW 5.8 mph - N/A   Scattered Clouds
7:15 AM 39.2 °F 35.0 °F 32.0 °F 75% 30.11 in 10.0 mi SW 5.8 mph - N/A   Clear
7:35 AM 41.0 °F 37.1 °F 33.8 °F 76% 30.12 in 10.0 mi WSW 5.8 mph - N/A   Clear
7:55 AM 42.8 °F 38.0 °F 33.8 °F 70% 30.13 in 10.0 mi WSW 8.1 mph - N/A   Clear
8:15 AM 42.8 °F 37.5 °F 33.8 °F 70% 30.14 in 10.0 mi SW 9.2 mph - N/A   Mostly Cloudy
8:35 AM 42.8 °F 37.5 °F 33.8 °F 70% 30.16 in 10.0 mi WSW 9.2 mph - N/A   Mostly Cloudy
8:55 AM 46.4 °F 42.4 °F 33.8 °F 62% 30.16 in 10.0 mi WSW 8.1 mph 16.1 mph N/A   Scattered Clouds
9:15 AM 44.6 °F 40.7 °F 33.8 °F 66% 30.17 in 10.0 mi WSW 6.9 mph 21.9 mph N/A   Mostly Cloudy
9:35 AM 46.4 °F 41.9 °F 32.0 °F 57% 30.17 in 10.0 mi WSW 9.2 mph - N/A   Mostly Cloudy
9:55 AM 46.4 °F 41.9 °F 32.0 °F 57% 30.18 in 10.0 mi WSW 9.2 mph 18.4 mph N/A   Mostly Cloudy
10:15 AM 48.2 °F - 32.0 °F 54% 30.19 in 10.0 mi West 8.1 mph 16.1 mph N/A   Scattered Clouds
10:35 AM 50.0 °F - 32.0 °F 50% 30.20 in 10.0 mi WSW 10.4 mph 18.4 mph N/A   Mostly Cloudy
10:55 AM 51.8 °F - 30.2 °F 44% 30.21 in 10.0 mi WSW 8.1 mph 19.6 mph N/A   Mostly Cloudy
11:15 AM 50.0 °F - 30.2 °F 47% 30.21 in 10.0 mi WSW 10.4 mph 18.4 mph N/A   Mostly Cloudy
11:35 AM 51.8 °F - 30.2 °F 44% 30.22 in 10.0 mi WSW 12.7 mph 18.4 mph N/A   Mostly Cloudy
11:55 AM 51.8 °F - 28.4 °F 41% 30.22 in 10.0 mi WSW 10.4 mph - N/A   Mostly Cloudy
12:15 PM 51.8 °F - 28.4 °F 41% 30.21 in 10.0 mi WNW 5.8 mph 16.1 mph N/A   Mostly Cloudy
12:35 PM 53.6 °F - 28.4 °F 38% 30.22 in 10.0 mi West 10.4 mph 18.4 mph N/A   Scattered Clouds
12:55 PM 57.2 °F - 30.2 °F 36% 30.21 in 10.0 mi WSW 9.2 mph 23.0 mph N/A   Mostly Cloudy
1:15 PM 55.4 °F - 26.6 °F 33% 30.21 in 10.0 mi WNW 6.9 mph 16.1 mph N/A   Mostly Cloudy
1:35 PM 55.4 °F - 28.4 °F 36% 30.21 in 10.0 mi West 6.9 mph 16.1 mph N/A   Mostly Cloudy
1:55 PM 55.4 °F - 26.6 °F 33% 30.21 in 10.0 mi WNW 8.1 mph 17.3 mph N/A   Scattered Clouds
2:15 PM 55.4 °F - 26.6 °F 33% 30.21 in 10.0 mi WNW 5.8 mph 16.1 mph N/A   Scattered Clouds
2:35 PM 57.2 °F - 28.4 °F 33% 30.21 in 10.0 mi WNW 10.4 mph 18.4 mph N/A   Scattered Clouds
2:55 PM 59.0 °F - 26.6 °F 29% 30.22 in 10.0 mi West 10.4 mph 16.1 mph N/A   Scattered Clouds
3:15 PM 59.0 °F - 24.8 °F 27% 30.22 in 10.0 mi West 5.8 mph - N/A   Scattered Clouds
3:35 PM 59.0 °F - 23.0 °F 25% 30.22 in 10.0 mi West 8.1 mph 16.1 mph N/A   Scattered Clouds
3:55 PM 55.4 °F - 23.0 °F 29% 30.22 in 10.0 mi WNW 6.9 mph 17.3 mph N/A   Clear
4:15 PM 59.0 °F - 24.8 °F 27% 30.22 in 10.0 mi West 9.2 mph 17.3 mph N/A   Clear
4:35 PM 59.0 °F - 26.6 °F 29% 30.23 in 10.0 mi West 5.8 mph 17.3 mph N/A   Scattered Clouds
4:55 PM 55.4 °F - 24.8 °F 31% 30.23 in 10.0 mi NW 8.1 mph - N/A   Scattered Clouds
5:15 PM 57.2 °F - 26.6 °F 31% 30.24 in 10.0 mi WSW 6.9 mph 16.1 mph N/A   Scattered Clouds
5:35 PM 57.2 °F - 26.6 °F 31% 30.25 in 10.0 mi West 6.9 mph - N/A   Clear
5:55 PM 57.2 °F - 26.6 °F 31% 30.26 in 10.0 mi WNW 4.6 mph - N/A   Scattered Clouds
6:15 PM 55.4 °F - 26.6 °F 33% 30.27 in 10.0 mi WNW 8.1 mph - N/A   Scattered Clouds
6:35 PM 53.6 °F - 24.8 °F 33% 30.27 in 10.0 mi NW 8.1 mph 16.1 mph N/A   Clear
6:55 PM 53.6 °F - 24.8 °F 33% 30.28 in 10.0 mi NW 8.1 mph - N/A   Clear
7:15 PM 51.8 °F - 24.8 °F 35% 30.28 in 10.0 mi WNW 9.2 mph - N/A   Clear
7:35 PM 51.8 °F - 24.8 °F 35% 30.29 in 10.0 mi Calm Calm - N/A   Clear
7:55 PM 50.0 °F - 24.8 °F 37% 30.30 in 10.0 mi NNW 3.5 mph - N/A   Clear
8:15 PM 48.2 °F - 26.6 °F 43% 30.31 in 10.0 mi Calm Calm - N/A   Clear
8:35 PM 48.2 °F - 26.6 °F 43% 30.32 in 10.0 mi North 5.8 mph - N/A   Clear
8:55 PM 46.4 °F 45.2 °F 26.6 °F 46% 30.33 in 10.0 mi NNE 3.5 mph - N/A   Clear
9:15 PM 46.4 °F 45.2 °F 26.6 °F 46% 30.35 in 10.0 mi NNE 3.5 mph - N/A   Clear
9:35 PM 44.6 °F - 26.6 °F 49% 30.36 in 10.0 mi Calm Calm - N/A   Clear
9:55 PM 44.6 °F - 26.6 °F 49% 30.37 in 10.0 mi Calm Calm - N/A   Clear
10:15 PM 42.8 °F - 26.6 °F 53% 30.38 in 10.0 mi Calm Calm - N/A   Clear
10:35 PM 41.0 °F - 28.4 °F 61% 30.38 in 10.0 mi Calm Calm - N/A   Clear
10:55 PM 39.2 °F - 28.4 °F 65% 30.39 in 10.0 mi Calm Calm - N/A   Clear
11:15 PM 37.4 °F - 28.4 °F 70% 30.40 in 10.0 mi Calm Calm - N/A   Clear
11:35 PM 37.4 °F - 28.4 °F 70% 30.40 in 10.0 mi Calm Calm - N/A   Clear
11:55 PM 35.6 °F - 28.4 °F 75% 30.41 in 10.0 mi Calm Calm - N/A   Clear